Fargo, ND

8:14 PM CDT on April 25, 2018 (GMT -0500)
Hector International

Weather History for KFAR - September, 2014

Change the Weather History Date:

Monday, September 1, 2014

  Actual Average Record
Temperature  
Mean Temperature 65 °F 65 °F  
Max Temperature 78 °F 77 °F 98 °F (1983)
Min Temperature 51 °F 53 °F 34 °F (1885)
Degree Days  
Heating Degree Days 0 3  
Month to date heating degree days 0 3  
Since 1 July heating degree days 32 53  
Cooling Degree Days 0 3  
Month to date cooling degree days 0 3  
Year to date cooling degree days 501 508  
Growing Degree Days 14 (Base 50)    
Moisture  
Dew Point 54 °F    
Average Humidity 69    
Maximum Humidity 96    
Minimum Humidity 42    
Precipitation  
Precipitation 0.00 in 0.10 in 2.50 in (2008)
Month to date precipitation 0.00 0.10  
Year to date precipitation 16.46 16.16  
Snow  
Snow 0.00 in 0.00 in 0.00 in ()
Month to date snowfall 0.0 0.0  
Since 1 July snowfall 0.0 0.0  
Since 1 September snowfall 0.0 0.0  
Snow Depth 0.00 in    
Sea Level Pressure  
Sea Level Pressure 29.72 in    
Wind  
Wind Speed 6 mph (WNW)    
Max Wind Speed 23 mph    
Max Gust Speed 28 mph    
Visibility 10 miles    
Events      
T = Trace of Precipitation, MM = Missing Value Source: NWS Daily Summary

Daily Weather History Graph

Daily Weather History Graph

Search for Another Location

Airport or City:

Astronomy

Sep. 01, 2014 Rise Set
Actual Time 6:46 AM CDT 8:06 PM CDT
Civil Twilight 6:15 AM CDT 8:38 PM CDT
Nautical Twilight 5:37 AM CDT 9:15 PM CDT
Astronomical Twilight 4:56 AM CDT 9:56 PM CDT
Moon 1:59 PM CDT (9/1) 11:42 PM CDT (9/1)
Length of Visible Light 14h 22m
Length of Day
13h 19m
Waxing Crescent, 42% of the Moon is Illuminated
Sep 1
Waxing Crescent
Sep 2
First Quarter
Sep 8
Full
Sep 15
Last Quarter
Sep 24
New

Hourly Weather History & Observations

Time (CDT) Temp. Dew Point Humidity Pressure Visibility Wind Dir Wind Speed Gust Speed Precip Events Conditions
12:53 AM 57.9 °F 55.0 °F 90% 29.65 in 10.0 mi WNW 5.8 mph - N/A   Clear
1:53 AM 55.9 °F 54.0 °F 93% 29.66 in 10.0 mi West 5.8 mph - N/A   Clear
2:53 AM 57.0 °F 54.0 °F 89% 29.65 in 10.0 mi NW 9.2 mph - N/A   Clear
3:53 AM 55.9 °F 54.0 °F 93% 29.68 in 10.0 mi NW 6.9 mph - N/A   Clear
4:53 AM 54.0 °F 52.0 °F 93% 29.68 in 10.0 mi WNW 4.6 mph - N/A   Clear
5:53 AM 53.1 °F 51.1 °F 93% 29.70 in 10.0 mi Calm Calm - N/A   Clear
6:53 AM 52.0 °F 50.0 °F 93% 29.71 in 10.0 mi WSW 5.8 mph - N/A   Clear
7:53 AM 55.0 °F 52.0 °F 89% 29.72 in 10.0 mi Calm Calm - N/A   Clear
8:53 AM 60.1 °F 55.9 °F 86% 29.72 in 10.0 mi West 3.5 mph - N/A   Clear
9:53 AM 64.4 °F 57.2 °F 77% 29.72 in 10.0 mi NNW 4.6 mph - N/A   Clear
10:53 AM 68.0 °F 57.0 °F 68% 29.73 in 10.0 mi NW 5.8 mph - N/A   Clear
11:53 AM 72.0 °F 57.0 °F 59% 29.73 in 10.0 mi WNW 5.8 mph - N/A   Clear
12:53 PM 73.0 °F 54.0 °F 51% 29.74 in 10.0 mi WSW 9.2 mph - N/A   Scattered Clouds
1:53 PM 73.9 °F 55.9 °F 53% 29.73 in 10.0 mi West 6.9 mph - N/A   Mostly Cloudy
2:53 PM 75.9 °F 55.0 °F 48% 29.72 in 10.0 mi WSW 10.4 mph - N/A   Clear
3:53 PM 77.0 °F 53.1 °F 43% 29.71 in 10.0 mi WSW 13.8 mph - N/A   Partly Cloudy
4:53 PM 78.1 °F 54.0 °F 43% 29.70 in 10.0 mi West 12.7 mph - N/A   Partly Cloudy
5:32 PM 68.0 °F 55.9 °F 65% 29.72 in 10.0 mi North 18.4 mph 26.5 mph N/A   Mostly Cloudy
5:53 PM 69.1 °F 55.0 °F 61% 29.72 in 10.0 mi NNE 9.2 mph - N/A   Mostly Cloudy
6:53 PM 64.9 °F 55.0 °F 70% 29.74 in 10.0 mi NNE 9.2 mph - N/A   Scattered Clouds
7:53 PM 64.0 °F 55.0 °F 73% 29.76 in 10.0 mi East 8.1 mph - N/A   Partly Cloudy
8:53 PM 61.0 °F 55.9 °F 83% 29.78 in 10.0 mi SSE 5.8 mph - N/A   Clear
9:53 PM 59.0 °F 55.9 °F 90% 29.81 in 10.0 mi South 4.6 mph - N/A   Clear
10:53 PM 57.9 °F 54.0 °F 87% 29.81 in 10.0 mi Calm Calm - N/A   Clear
11:53 PM 57.0 °F 53.1 °F 87% 29.80 in 10.0 mi South 5.8 mph - N/A   Clear